When you browse on this site, cookies collect data to enhance your experience and personalize the content and advertising you see.
Visit our Privacy Policy to learn more. By continuing to use the site, you agree to this use of cookies and data.
  • In Hungary
  • List of Countries
  • For 7 days
  • Water Temperature
  • Satellite Maps
  • Weather Map
  • News
  • Weather Widgets
  • user-avatar
    Login

    Hourly Weather Yurlovka

    Today, 17 November, Saturday

    Time Temperature Precipitation Wind Pressure Humidity
    00:00 -4°C° 0 mm 2 mps 769 mmHg 26%
    01:00 -4°C° 0 mm 2 mps 769 mmHg 26%
    02:00 -4°C° 0 mm 2 mps 768 mmHg 26%
    03:00 -4°C° 0 mm 2 mps 768 mmHg 25%
    04:00 -4°C° 0 mm 2 mps 768 mmHg 25%
    05:00 -2°C° 0 mm 1 mps 768 mmHg 25%
    06:00 -2°C° 0 mm 1 mps 768 mmHg 25%
    07:00 -2°C° 0 mm 1 mps 767 mmHg 24%
    08:00 -2°C° 0 mm 1 mps 767 mmHg 23%
    09:00 -2°C° 0 mm 1 mps 767 mmHg 23%
    10:00 -1°C° 0 mm 1 mps 767 mmHg 21%
    11:00 +1°C° 0 mm 1 mps 766 mmHg 20%
    12:00 +2°C° 0 mm 1 mps 766 mmHg 18%
    13:00 +2°C° 0 mm 1 mps 765 mmHg 19%
    14:00 +2°C° 0 mm 1 mps 765 mmHg 21%
    15:00 +2°C° 0 mm 1 mps 764 mmHg 22%
    16:00 +1°C° 0 mm 1 mps 764 mmHg 23%
    17:00 -2°C° 0 mm 2 mps 763 mmHg 24%
    18:00 -2°C° 0 mm 2 mps 762 mmHg 25%
    19:00 -3°C° 0 mm 2 mps 762 mmHg 24%
    20:00 -3°C° 0 mm 2 mps 761 mmHg 24%
    21:00 -3°C° 0 mm 2 mps 761 mmHg 24%
    22:00 -4°C° 0 mm 3 mps 760 mmHg 25%
    23:00 -4°C° 0 mm 3 mps 759 mmHg 25%

    Tomorrow, 18 November, Sunday

    Time Temperature Precipitation Wind Pressure Humidity
    00:00 -4°C° 0 mm 3 mps 759 mmHg 25%
    01:00 -4°C° 0 mm 4 mps 758 mmHg 25%
    02:00 -4°C° 0 mm 4 mps 757 mmHg 24%
    03:00 -4°C° 0 mm 4 mps 757 mmHg 24%
    04:00 -4°C° 0 mm 4 mps 756 mmHg 25%
    05:00 -4°C° 0 mm 4 mps 755 mmHg 25%
    06:00 -4°C° 0 mm 4 mps 755 mmHg 25%
    07:00 -4°C° 0 mm 4 mps 754 mmHg 26%
    08:00 -4°C° 0 mm 4 mps 754 mmHg 26%
    09:00 -4°C° 0 mm 4 mps 754 mmHg 27%
    10:00 -3°C° 0 mm 4 mps 754 mmHg 28%
    11:00 -1°C° 0 mm 3 mps 754 mmHg 28%
    12:00 0°C° 0 mm 3 mps 754 mmHg 29%
    13:00 0°C° 0 mm 3 mps 753 mmHg 30%
    14:00 0°C° 0 mm 3 mps 753 mmHg 31%
    15:00 +1°C° 0 mm 2 mps 753 mmHg 32%
    16:00 -1°C° 0 mm 2 mps 753 mmHg 34%
    17:00 -2°C° 0 mm 2 mps 753 mmHg 36%
    18:00 -2°C° 0 mm 2 mps 753 mmHg 38%
    19:00 -2°C° 0 mm 2 mps 753 mmHg 40%
    20:00 -3°C° 0 mm 2 mps 753 mmHg 42%
    21:00 -3°C° 0 mm 2 mps 753 mmHg 43%
    22:00 -3°C° 0 mm 2 mps 754 mmHg 45%
    23:00 -3°C° 0 mm 2 mps 754 mmHg 46%

    Day after tomorrow, 19 November, Monday

    Time Temperature Precipitation Wind Pressure Humidity
    00:00 -1°C° 0 mm 1 mps 754 mmHg 47%
    01:00 -1°C° 0 mm 1 mps 754 mmHg 47%
    02:00 -1°C° 0 mm 1 mps 755 mmHg 46%
    03:00 -1°C° 0 mm 1 mps 755 mmHg 46%
    04:00 -1°C° 0 mm 1 mps 755 mmHg 46%
    05:00 -2°C° 0 mm 1 mps 755 mmHg 46%
    06:00 -2°C° 0 mm 1 mps 755 mmHg 46%
    07:00 -2°C° 0 mm 1 mps 756 mmHg 45%
    08:00 -2°C° 0 mm 1 mps 756 mmHg 45%
    09:00 -2°C° 0 mm 1 mps 757 mmHg 44%
    10:00 -1°C° 0 mm 1 mps 757 mmHg 42%
    11:00 0°C° 0 mm 1 mps 757 mmHg 39%
    12:00 +1°C° 0 mm 1 mps 758 mmHg 37%
    13:00 +1°C° 0 mm 1 mps 758 mmHg 38%
    14:00 +1°C° 0 mm 1 mps 758 mmHg 39%
    15:00 +1°C° 0 mm 1 mps 758 mmHg 41%
    16:00 0°C° 0 mm 1 mps 759 mmHg 43%
    17:00 -2°C° 0 mm 2 mps 759 mmHg 46%
    18:00 -3°C° 0 mm 2 mps 759 mmHg 48%
    19:00 -3°C° 0 mm 2 mps 759 mmHg 49%
    20:00 -3°C° 0 mm 2 mps 759 mmHg 50%
    21:00 -3°C° 0 mm 2 mps 759 mmHg 50%
    22:00 -3°C° 0 mm 2 mps 760 mmHg 51%
    23:00 -3°C° 0 mm 2 mps 760 mmHg 52%

    20 November, Tuesday

    Time Temperature Precipitation Wind Pressure Humidity
    00:00 -3°C° 0 mm 2 mps 760 mmHg 52%
    01:00 -3°C° 0 mm 2 mps 760 mmHg 52%
    02:00 -3°C° 0 mm 2 mps 760 mmHg 52%
    03:00 -3°C° 0 mm 2 mps 760 mmHg 52%
    04:00 -3°C° 0 mm 2 mps 760 mmHg 52%
    05:00 -3°C° 0 mm 2 mps 760 mmHg 51%
    06:00 -3°C° 0 mm 2 mps 760 mmHg 51%
    07:00 -3°C° 0 mm 2 mps 760 mmHg 49%
    08:00 -4°C° 0 mm 3 mps 760 mmHg 47%
    09:00 -2°C° 0 mm 3 mps 760 mmHg 45%
    10:00 -2°C° 0 mm 3 mps 760 mmHg 44%
    11:00 -1°C° 0 mm 3 mps 760 mmHg 43%
    12:00 -1°C° 0 mm 3 mps 760 mmHg 42%
    13:00 -1°C° 0 mm 3 mps 759 mmHg 49%
    14:00 -1°C° 0 mm 3 mps 759 mmHg 56%
    15:00 -1°C° 0 mm 3 mps 758 mmHg 63%
    16:00 -1°C° 0.1 mm 3 mps 758 mmHg 68%
    17:00 -2°C° 0.1 mm 3 mps 758 mmHg 73%
    18:00 -2°C° 0.1 mm 2 mps 758 mmHg 78%
    19:00 -2°C° 0 mm 2 mps 757 mmHg 75%
    20:00 -2°C° 0 mm 2 mps 757 mmHg 72%
    21:00 -2°C° 0 mm 2 mps 757 mmHg 69%
    22:00 -2°C° 0 mm 2 mps 757 mmHg 69%
    23:00 -2°C° 0 mm 2 mps 756 mmHg 70%

    21 November, Wednesday

    Time Temperature Precipitation Wind Pressure Humidity
    00:00 -3°C° 0 mm 2 mps 756 mmHg 71%
    01:00 -3°C° 0 mm 2 mps 756 mmHg 73%
    02:00 -1°C° 0 mm 1 mps 756 mmHg 76%
    03:00 -1°C° 0 mm 1 mps 755 mmHg 78%
    04:00 -1°C° 0 mm 1 mps 755 mmHg 81%
    05:00 -1°C° 0 mm 1 mps 755 mmHg 84%
    06:00 -1°C° 0 mm 1 mps 755 mmHg 87%
    07:00 -1°C° 0 mm 1 mps 755 mmHg 87%
    08:00 -1°C° 0 mm 1 mps 755 mmHg 87%
    09:00 -1°C° 0 mm 1 mps 755 mmHg 87%
    10:00 0°C° 0 mm 1 mps 754 mmHg 85%
    11:00 0°C° 0 mm 1 mps 754 mmHg 83%
    12:00 +1°C° 0 mm 1 mps 754 mmHg 81%
    13:00 +1°C° 0 mm 1 mps 754 mmHg 81%
    14:00 +1°C° 0 mm 1 mps 754 mmHg 81%
    15:00 +1°C° 0 mm 1 mps 754 mmHg 82%
    16:00 0°C° 0 mm 1 mps 754 mmHg 83%
    17:00 -2°C° 0 mm 2 mps 754 mmHg 85%
    18:00 -2°C° 0 mm 2 mps 754 mmHg 87%
    19:00 -3°C° 0 mm 2 mps 754 mmHg 87%
    20:00 -3°C° 0 mm 2 mps 754 mmHg 87%
    21:00 -3°C° 0 mm 2 mps 754 mmHg 87%
    22:00 -3°C° 0 mm 2 mps 754 mmHg 87%
    23:00 -3°C° 0 mm 2 mps 754 mmHg 86%

    22 November, Thursday

    Time Temperature Precipitation Wind Pressure Humidity
    00:00 -3°C° 0 mm 2 mps 754 mmHg 86%
    01:00 -3°C° 0 mm 2 mps 754 mmHg 86%
    02:00 -4°C° 0 mm 2 mps 754 mmHg 85%
    03:00 -5°C° 0 mm 3 mps 754 mmHg 85%
    04:00 -5°C° 0 mm 3 mps 754 mmHg 86%
    05:00 -5°C° 0 mm 3 mps 754 mmHg 87%
    06:00 -6°C° 0 mm 3 mps 754 mmHg 88%
    07:00 -6°C° 0 mm 3 mps 754 mmHg 88%
    08:00 -6°C° 0 mm 3 mps 754 mmHg 88%
    09:00 -6°C° 0 mm 3 mps 754 mmHg 88%
    10:00 -5°C° 0 mm 3 mps 754 mmHg 83%
    11:00 -4°C° 0 mm 3 mps 754 mmHg 78%
    12:00 -2°C° 0 mm 3 mps 755 mmHg 73%
    13:00 -2°C° 0 mm 3 mps 755 mmHg 72%
    14:00 -2°C° 0 mm 3 mps 755 mmHg 70%
    15:00 -2°C° 0 mm 3 mps 754 mmHg 69%
    16:00 -4°C° 0 mm 3 mps 755 mmHg 73%
    17:00 -5°C° 0 mm 3 mps 755 mmHg 76%
    18:00 -5°C° 0 mm 3 mps 755 mmHg 79%
    19:00 -5°C° 0 mm 3 mps 755 mmHg 79%
    20:00 -5°C° 0 mm 2 mps 755 mmHg 80%
    21:00 -5°C° 0 mm 2 mps 755 mmHg 80%
    22:00 -5°C° 0 mm 2 mps 756 mmHg 80%
    23:00 -5°C° 0 mm 2 mps 756 mmHg 81%
    Show more